Weather History for Livingston, MT

Change the Weather History Date:

Friday, March 22, 2013

  Actual Average Record
Temperature  
Mean Temperature 24 °F 37 °F  
Max Temperature 32 °F 49 °F 69 °F (1960)
Min Temperature 19 °F 25 °F 1 °F (1964)
Degree Days  
Heating Degree Days 40 28  
Month to date heating degree days 668  
Since 1 July heating degree days 6016  
Cooling Degree Days 0 0  
Month to date cooling degree days 0  
Year to date cooling degree days 0  
Moisture  
Dew Point 14 °F    
Average Humidity 70    
Maximum Humidity 93    
Minimum Humidity 38    
Precipitation  
Precipitation 0.00 in 0.03 in 0.31 in (1975)
Month to date precipitation 0.52  
Year to date precipitation 1.51  
Sea Level Pressure  
Sea Level Pressure 30.02 in    
Wind  
Wind Speed 10 mph (ENE)    
Max Wind Speed 17 mph    
Max Gust Speed 24 mph    
Visibility 6 miles    
Events Fog , Snow    
T = Trace of Precipitation, MM = Missing Value Source: NWS Daily Summary

Daily Weather History Graph

Daily Weather History Graph

Search for Another Location

Airport:

Trip Planner

Search our weather history database for the weather conditions in past years. The results will help you decide how hot, cold, wet, or windy it might be!

Date:

Astronomy

Mar. 22, 2013 Rise Set
Actual Time 7:20 AM MDT 7:37 PM MDT
Civil Twilight 6:50 AM MDT 8:07 PM MDT
Nautical Twilight 6:15 AM MDT 8:42 PM MDT
Astronomical Twilight 5:39 AM MDT 9:18 PM MDT
Moon 2:56 PM MDT (3/22) 4:35 AM MDT (3/22)
Length of Visible Light 13h 16m
Length of Day
12h 17m
Waxing Gibbous, 78% of the Moon is Illuminated
Mar 22
Waxing Gibbous
Mar 27
Full
Apr 2
Last Quarter
Apr 10
New
Apr 18
First Quarter

Hourly Weather History & Observations

Time (MDT) Temp. Windchill Dew Point Humidity Pressure Visibility Wind Dir Wind Speed Gust Speed Precip Events Conditions
12:53 AM 19.0 °F 10.0 °F 7.0 °F 59% 29.96 in 10.0 mi WSW 6.9 mph - N/A   Clear
1:53 AM 23.0 °F 11.1 °F 9.0 °F 55% 29.94 in 10.0 mi WSW 12.7 mph - N/A   Overcast
2:53 AM 21.9 °F 11.0 °F 9.0 °F 58% 29.94 in 10.0 mi West 10.4 mph - N/A   Overcast
3:53 AM 21.0 °F 9.3 °F 8.1 °F 57% 29.94 in 10.0 mi WSW 11.5 mph - N/A   Mostly Cloudy
4:53 AM 23.0 °F 15.8 °F 9.0 °F 55% 29.94 in 10.0 mi West 5.8 mph - N/A   Overcast
5:53 AM 21.0 °F 9.3 °F 7.0 °F 55% 29.94 in 10.0 mi SW 11.5 mph - N/A   Partly Cloudy
6:53 AM 21.9 °F 10.4 °F 9.0 °F 58% 29.96 in 10.0 mi SW 11.5 mph - N/A   Mostly Cloudy
7:53 AM 21.9 °F 11.7 °F 10.9 °F 63% 29.98 in 10.0 mi West 9.2 mph - N/A   Overcast
8:53 AM 26.1 °F 14.0 °F 9.0 °F 49% 29.98 in 10.0 mi WSW 15.0 mph - N/A   Overcast
9:53 AM 28.9 °F 16.9 °F 9.0 °F 43% 29.99 in 10.0 mi WSW 17.3 mph 24.2 mph N/A   Scattered Clouds
10:53 AM 28.9 °F 21.1 °F 10.9 °F 47% 29.99 in 9.0 mi West 8.1 mph - 0.00 in   Overcast
11:37 AM 26.6 °F 16.2 °F 17.6 °F 69% 29.88 in 2.5 mi West 11.5 mph - 0.00 in Snow Light Snow
11:46 AM 28.4 °F 22.2 °F 15.8 °F 59% 29.88 in 3.0 mi WSW 5.8 mph - 0.00 in Snow Light Snow
11:53 AM 28.9 °F 22.8 °F 12.9 °F 51% 30.01 in 9.0 mi West 5.8 mph - 0.00 in   Overcast
12:53 PM 30.0 °F 24.1 °F 10.0 °F 43% 30.01 in 8.0 mi Variable 5.8 mph - 0.00 in Snow Light Snow
1:53 PM 27.0 °F 15.6 °F 18.0 °F 69% 30.02 in 4.0 mi WSW 13.8 mph 18.4 mph 0.00 in Snow Light Snow
2:53 PM 30.9 °F 21.7 °F 12.9 °F 47% 30.01 in 10.0 mi NNW 11.5 mph 21.9 mph 0.00 in   Overcast
3:53 PM 30.9 °F 22.2 °F 8.1 °F 38% 30.04 in 10.0 mi NNW 10.4 mph 19.6 mph N/A   Overcast
4:53 PM 30.9 °F 20.2 °F 9.0 °F 40% 30.05 in 10.0 mi NNW 15.0 mph - N/A   Overcast
5:53 PM 26.1 °F 14.5 °F 18.0 °F 71% 30.10 in 10.0 mi East 13.8 mph - N/A   Overcast
6:06 PM 24.8 °F 12.4 °F 17.6 °F 74% 29.96 in 10.0 mi East 15.0 mph - 0.00 in Snow Light Snow
6:22 PM 24.8 °F 13.4 °F 19.4 °F 80% 29.97 in 1.8 mi East 12.7 mph - 0.00 in Snow Light Snow
6:29 PM 24.8 °F 12.4 °F 19.4 °F 80% 29.97 in 0.8 mi East 15.0 mph - 0.00 in Snow Light Snow
6:48 PM 23.0 °F 10.6 °F 19.4 °F 86% 29.98 in 1.2 mi East 13.8 mph - 0.00 in Snow Light Snow
6:53 PM 23.0 °F 12.4 °F 19.0 °F 85% 30.13 in 2.5 mi ESE 10.4 mph - 0.00 in Snow Light Snow
7:01 PM 23.0 °F 11.7 °F 19.4 °F 86% 29.98 in 1.0 mi ESE 11.5 mph - 0.00 in Snow Light Snow
7:07 PM 23.0 °F 11.7 °F 19.4 °F 86% 29.99 in 0.5 mi ESE 11.5 mph - 0.00 in Fog , Snow Snow
7:17 PM 23.0 °F 10.6 °F 19.4 °F 86% 29.99 in 0.5 mi East 13.8 mph - 0.00 in Fog , Snow Snow
7:25 PM 23.0 °F 11.1 °F 19.4 °F 86% 29.99 in 1.2 mi East 12.7 mph - 0.00 in Snow Light Snow
7:40 PM 21.2 °F 8.3 °F 17.6 °F 86% 30.00 in 3.0 mi East 13.8 mph - 0.00 in Snow Light Snow
7:53 PM 21.9 °F 9.2 °F 18.0 °F 85% 30.16 in 6.0 mi East 13.8 mph - 0.00 in Snow Light Snow
8:11 PM 21.2 °F 8.3 °F 17.6 °F 86% 30.01 in 2.5 mi ESE 13.8 mph - 0.00 in Snow Light Snow
8:29 PM 21.2 °F 10.9 °F 17.6 °F 86% 30.02 in 5.0 mi East 9.2 mph - 0.00 in Snow Light Snow
8:53 PM 21.0 °F 11.4 °F 17.1 °F 85% 30.17 in 10.0 mi NE 8.1 mph - 0.00 in   Overcast
9:12 PM 21.2 °F 12.6 °F 17.6 °F 86% 30.04 in 2.5 mi ENE 6.9 mph - 0.00 in Snow Light Snow
9:21 PM 21.2 °F 11.7 °F 17.6 °F 86% 30.04 in 1.2 mi ENE 8.1 mph - 0.00 in Snow Light Snow
9:27 PM 21.2 °F 11.7 °F 17.6 °F 86% 30.04 in 1.0 mi ENE 8.1 mph - 0.00 in Snow Light Snow
9:32 PM 21.2 °F 11.7 °F 17.6 °F 86% 30.05 in 1.2 mi ENE 8.1 mph - 0.00 in Snow Light Snow
9:44 PM 19.4 °F 10.4 °F 17.6 °F 93% 30.05 in 2.5 mi ENE 6.9 mph - 0.00 in Snow Light Snow
9:48 PM 19.4 °F 9.5 °F 17.6 °F 93% 30.05 in 3.0 mi ENE 8.1 mph - 0.00 in Snow Light Snow
9:53 PM 19.9 °F 10.1 °F 16.0 °F 85% 30.19 in 4.0 mi ENE 8.1 mph - 0.00 in Snow Light Snow
10:53 PM 19.9 °F 10.1 °F 14.0 °F 78% 30.21 in 7.0 mi North 8.1 mph - 0.00 in Snow Light Snow
11:28 PM 19.4 °F 9.5 °F 12.2 °F 74% 30.07 in 10.0 mi North 8.1 mph - 0.00 in   Overcast
11:39 PM 19.4 °F 10.4 °F 10.4 °F 68% 30.08 in 10.0 mi North 6.9 mph - 0.00 in   Overcast
11:53 PM 19.0 °F 11.1 °F 10.9 °F 71% 30.22 in 10.0 mi North 5.8 mph - 0.00 in   Overcast